JFA34J LPMA-LPFR

Flight info

Callsign JFA34J
Flight time 1h 59m
Altitude 26000
Route DEGUN DCT GIMAL
Aircraft PC12/L-SDE3FGHIRWY/LB1

Departure

Time 2026-05-05 22:33
Airport Cristiano Ronaldo International Airport (LPMA)

Arrival

Time 2026-05-06 00:33
Airport Faro - Gago Coutinho International Airport (LPFR)
Time Latitude Longitude Altitude Speed Heading
2026-05-05 22:10 32.69254 -16.77789 165 ft 0 kts 138°
2026-05-05 22:28 32.69254 -16.77788 165 ft 0 kts 137°
2026-05-05 22:28 32.69253 -16.77782 165 ft 1 kts 61°
2026-05-05 22:28 32.69258 -16.77778 165 ft 1 kts 14°
2026-05-05 22:29 32.69267 -16.77780 165 ft 1 kts 309°
2026-05-05 22:29 32.69279 -16.77814 165 ft 6 kts 306°
2026-05-05 22:29 32.69299 -16.77845 165 ft 5 kts 266°
2026-05-05 22:29 32.69288 -16.77899 165 ft 8 kts 270°
2026-05-05 22:30 32.69288 -16.77977 165 ft 11 kts 270°
2026-05-05 22:30 32.69257 -16.78065 164 ft 14 kts 224°
2026-05-05 22:30 32.69176 -16.78161 160 ft 18 kts 225°
2026-05-05 22:30 32.69079 -16.78274 154 ft 20 kts 224°
2026-05-05 22:31 32.68973 -16.78390 150 ft 21 kts 200°
2026-05-05 22:31 32.68887 -16.78427 150 ft 9 kts 242°
2026-05-05 22:31 32.68906 -16.78476 150 ft 5 kts 357°
2026-05-05 22:31 32.68922 -16.78464 150 ft 1 kts 51°
2026-05-05 22:32 32.68922 -16.78463 150 ft 0 kts 50°
2026-05-05 22:32 32.68931 -16.78450 150 ft 4 kts 51°
2026-05-05 22:32 32.68968 -16.78405 150 ft 17 kts 44°
2026-05-05 22:32 32.69157 -16.78183 159 ft 62 kts 45°
2026-05-05 22:33 32.69553 -16.77727 267 ft 88 kts 44°
2026-05-05 22:33 32.69997 -16.77175 589 ft 98 kts 50°
2026-05-05 22:33 32.70024 -16.76329 986 ft 119 kts 105°
2026-05-05 22:33 32.69748 -16.75315 1390 ft 139 kts 105°
2026-05-05 22:34 32.69461 -16.74162 1892 ft 150 kts 105°
2026-05-05 22:34 32.69167 -16.72943 2393 ft 157 kts 105°
2026-05-05 22:34 32.68870 -16.71684 2913 ft 157 kts 104°
2026-05-05 22:34 32.68583 -16.70458 3551 ft 151 kts 104°
2026-05-05 22:35 32.68310 -16.69296 4203 ft 141 kts 105°
2026-05-05 22:35 32.68056 -16.68212 4779 ft 140 kts 106°
2026-05-05 22:35 32.67790 -16.67079 5294 ft 142 kts 106°
2026-05-05 22:35 32.67528 -16.65966 5876 ft 141 kts 106°
2026-05-05 22:36 32.67261 -16.64832 6395 ft 144 kts 107°
2026-05-05 22:36 32.66989 -16.63680 6894 ft 146 kts 107°
2026-05-05 22:36 32.66711 -16.62507 7385 ft 149 kts 107°
2026-05-05 22:36 32.66429 -16.61317 7876 ft 151 kts 108°
2026-05-05 22:37 32.66144 -16.60113 8364 ft 151 kts 108°
2026-05-05 22:37 32.65850 -16.58879 8789 ft 156 kts 108°
2026-05-05 22:37 32.65560 -16.57649 9400 ft 156 kts 110°
2026-05-05 22:37 32.65266 -16.56412 9951 ft 158 kts 110°
2026-05-05 22:38 32.65045 -16.55125 10452 ft 163 kts 87°
2026-05-05 22:38 32.65479 -16.53897 10946 ft 164 kts 47°
2026-05-05 22:38 32.66305 -16.52938 11436 ft 167 kts 41°
2026-05-05 22:38 32.67151 -16.51988 11967 ft 168 kts 41°
2026-05-05 22:39 32.68003 -16.51019 12491 ft 171 kts 41°
2026-05-05 22:39 32.68867 -16.50033 13017 ft 173 kts 41°
2026-05-05 22:39 32.69743 -16.49034 13551 ft 175 kts 41°
2026-05-05 22:39 32.70628 -16.48025 14072 ft 177 kts 40°
2026-05-05 22:40 32.71523 -16.47004 14550 ft 179 kts 40°
2026-05-05 22:40 32.72426 -16.45975 15033 ft 181 kts 40°
2026-05-05 22:40 32.73337 -16.44934 15517 ft 182 kts 40°
2026-05-05 22:40 32.74257 -16.43884 15999 ft 185 kts 40°
2026-05-05 22:41 32.75186 -16.42823 16484 ft 186 kts 40°
2026-05-05 22:41 32.76125 -16.41750 16974 ft 188 kts 39°
2026-05-05 22:41 32.77074 -16.40666 17472 ft 190 kts 39°
2026-05-05 22:41 32.78033 -16.39572 17955 ft 192 kts 39°
2026-05-05 22:42 32.78999 -16.38466 18440 ft 194 kts 39°
2026-05-05 22:42 32.79977 -16.37348 18860 ft 196 kts 39°
2026-05-05 22:42 32.80959 -16.36223 19308 ft 196 kts 39°
2026-05-05 22:42 32.81954 -16.35087 19586 ft 207 kts 39°
2026-05-05 22:43 32.83019 -16.33868 19829 ft 217 kts 40°
2026-05-05 22:43 32.84125 -16.32599 20072 ft 225 kts 40°
2026-05-05 22:43 32.85266 -16.31288 20321 ft 232 kts 40°
2026-05-05 22:43 32.86441 -16.29939 20567 ft 237 kts 40°
2026-05-05 22:44 32.87640 -16.28564 20821 ft 241 kts 40°
2026-05-05 22:44 32.88857 -16.27167 21068 ft 245 kts 40°
2026-05-05 22:44 32.90094 -16.25748 21320 ft 248 kts 40°
2026-05-05 22:44 32.91346 -16.24312 21571 ft 251 kts 40°
2026-05-05 22:45 32.92612 -16.22858 21823 ft 254 kts 40°
2026-05-05 22:45 32.93887 -16.21392 22083 ft 256 kts 41°
2026-05-05 22:45 32.95158 -16.19931 22335 ft 257 kts 41°
2026-05-05 22:45 32.96450 -16.18446 22596 ft 259 kts 41°
2026-05-05 22:46 32.97746 -16.16956 22863 ft 260 kts 41°
2026-05-05 22:46 32.99049 -16.15456 23130 ft 260 kts 41°
2026-05-05 22:46 33.00342 -16.13966 23403 ft 257 kts 41°
2026-05-05 22:46 33.01622 -16.12492 23663 ft 255 kts 41°
2026-05-05 22:47 33.02893 -16.11029 23896 ft 253 kts 40°
2026-05-05 22:47 33.04154 -16.09576 24120 ft 251 kts 41°
2026-05-05 22:47 33.05404 -16.08135 24353 ft 249 kts 41°
2026-05-05 22:47 33.06649 -16.06700 24577 ft 248 kts 40°
2026-05-05 22:48 33.07887 -16.05271 24810 ft 247 kts 40°
2026-05-05 22:48 33.09120 -16.03848 25041 ft 246 kts 40°
2026-05-05 22:48 33.10358 -16.02420 25205 ft 249 kts 41°
2026-05-05 22:48 33.11592 -16.00993 25378 ft 251 kts 41°
2026-05-05 22:49 33.12849 -15.99539 25539 ft 253 kts 41°
2026-05-05 22:49 33.14117 -15.98072 25709 ft 254 kts 41°
2026-05-05 22:49 33.15391 -15.96598 25876 ft 256 kts 41°
2026-05-05 22:49 33.16671 -15.95117 26049 ft 257 kts 41°
2026-05-05 22:50 33.17960 -15.93624 26139 ft 261 kts 41°
2026-05-05 22:50 33.19286 -15.92089 26146 ft 269 kts 41°
2026-05-05 22:50 33.20639 -15.90519 26151 ft 274 kts 41°
2026-05-05 22:50 33.22020 -15.88917 26155 ft 279 kts 41°
2026-05-05 22:51 33.23423 -15.87289 26153 ft 282 kts 41°
2026-05-05 22:51 33.24841 -15.85644 26155 ft 286 kts 41°
2026-05-05 22:51 33.26274 -15.83980 26156 ft 288 kts 41°
2026-05-05 22:51 33.27716 -15.82304 26153 ft 290 kts 41°
2026-05-05 22:52 33.29167 -15.80618 26153 ft 291 kts 41°
2026-05-05 22:52 33.30602 -15.78950 26152 ft 292 kts 41°
2026-05-05 22:52 33.32060 -15.77253 26154 ft 293 kts 41°
2026-05-05 22:52 33.33521 -15.75552 26158 ft 293 kts 41°
2026-05-05 22:53 33.34982 -15.73851 26156 ft 293 kts 41°
2026-05-05 22:53 33.36445 -15.72147 26159 ft 294 kts 41°
2026-05-05 22:53 33.37934 -15.70412 26160 ft 295 kts 42°
2026-05-05 22:53 33.39384 -15.68720 26159 ft 295 kts 42°
2026-05-05 22:54 33.40854 -15.67004 26159 ft 295 kts 42°
2026-05-05 22:54 33.42202 -15.65152 26152 ft 296 kts 56°
2026-05-05 22:54 33.43253 -15.63032 26158 ft 296 kts 58°
2026-05-05 22:54 33.44276 -15.60890 26157 ft 297 kts 59°
2026-05-05 22:55 33.45310 -15.58748 26153 ft 297 kts 58°
2026-05-05 22:55 33.46354 -15.56611 26153 ft 297 kts 58°
2026-05-05 22:55 33.47394 -15.54479 26152 ft 297 kts 58°
2026-05-05 22:55 33.48432 -15.52339 26152 ft 297 kts 58°
2026-05-05 22:56 33.49469 -15.50200 26150 ft 297 kts 58°
2026-05-05 22:56 33.50507 -15.48062 26151 ft 297 kts 58°
2026-05-05 22:56 33.51547 -15.45916 26150 ft 297 kts 58°
2026-05-05 22:56 33.52233 -15.44502 26149 ft 297 kts 58°
2026-05-05 22:57 33.53609 -15.41659 26147 ft 297 kts 58°
2026-05-05 22:57 33.54647 -15.39515 26147 ft 297 kts 58°
2026-05-05 22:57 33.55684 -15.37371 26146 ft 297 kts 58°
2026-05-05 22:57 33.56721 -15.35227 26146 ft 297 kts 58°
2026-05-05 22:58 33.57757 -15.33082 26146 ft 297 kts 58°
2026-05-05 22:58 33.58444 -15.31659 26147 ft 297 kts 58°
2026-05-05 22:58 33.59483 -15.29507 26147 ft 297 kts 58°
2026-05-05 22:58 33.60517 -15.27363 26147 ft 297 kts 58°
2026-05-05 22:59 33.61551 -15.25218 26147 ft 297 kts 58°
2026-05-05 22:59 33.62585 -15.23072 26146 ft 297 kts 58°
2026-05-05 22:59 33.63620 -15.20922 26147 ft 297 kts 58°
2026-05-05 22:59 33.64652 -15.18777 26149 ft 297 kts 58°
2026-05-05 23:00 33.66720 -15.14476 26147 ft 297 kts 58°
2026-05-05 23:00 33.67753 -15.12326 26147 ft 297 kts 58°
2026-05-05 23:00 33.68787 -15.10172 26149 ft 297 kts 58°
2026-05-05 23:01 33.69818 -15.08023 26147 ft 297 kts 58°
2026-05-05 23:01 33.70848 -15.05874 26151 ft 297 kts 58°
2026-05-05 23:01 33.71880 -15.03719 26151 ft 297 kts 58°
2026-05-05 23:01 33.72910 -15.01569 26149 ft 297 kts 58°
2026-05-05 23:02 33.73942 -14.99413 26150 ft 297 kts 58°
2026-05-05 23:02 33.74960 -14.97284 26150 ft 297 kts 58°
2026-05-05 23:02 33.75990 -14.95130 26149 ft 298 kts 58°
2026-05-05 23:02 33.77023 -14.92967 26149 ft 298 kts 58°
2026-05-05 23:03 33.78054 -14.90808 26152 ft 298 kts 58°
2026-05-05 23:03 33.79082 -14.88653 26158 ft 297 kts 58°
2026-05-05 23:03 33.80111 -14.86495 26157 ft 297 kts 58°
2026-05-05 23:03 33.81139 -14.84338 26160 ft 298 kts 58°
2026-05-05 23:04 33.82170 -14.82173 26159 ft 298 kts 58°
2026-05-05 23:04 33.83199 -14.80012 26164 ft 298 kts 58°
2026-05-05 23:04 33.84228 -14.77848 26163 ft 298 kts 59°
2026-05-05 23:04 33.85257 -14.75683 26165 ft 298 kts 59°
2026-05-05 23:05 33.86282 -14.73526 26164 ft 298 kts 59°
2026-05-05 23:05 33.87315 -14.71352 26167 ft 298 kts 59°
2026-05-05 23:05 33.88342 -14.69187 26167 ft 298 kts 59°
2026-05-05 23:05 33.89372 -14.67015 26166 ft 299 kts 59°
2026-05-05 23:06 33.90402 -14.64842 26164 ft 299 kts 59°
2026-05-05 23:06 33.91431 -14.62670 26164 ft 299 kts 59°
2026-05-05 23:06 33.92458 -14.60500 26162 ft 299 kts 59°
2026-05-05 23:06 33.93492 -14.58314 26165 ft 299 kts 59°
2026-05-05 23:07 33.94536 -14.56106 26165 ft 300 kts 59°
2026-05-05 23:07 33.95556 -14.53948 26165 ft 300 kts 59°
2026-05-05 23:07 33.96578 -14.51781 26161 ft 291 kts 59°
2026-05-05 23:07 33.97543 -14.49727 26152 ft 273 kts 59°
2026-05-05 23:08 33.98453 -14.47796 26148 ft 256 kts 59°
2026-05-05 23:08 33.99301 -14.45997 26145 ft 238 kts 59°
2026-05-05 23:08 34.00086 -14.44331 26148 ft 220 kts 58°
2026-05-05 23:08 34.00814 -14.42783 26144 ft 204 kts 58°
2026-05-05 23:09 34.01489 -14.41350 26143 ft 189 kts 58°
2026-05-05 23:09 34.02117 -14.40018 26148 ft 177 kts 58°
2026-05-05 23:09 34.02703 -14.38774 26131 ft 166 kts 57°
2026-05-05 23:09 34.03303 -14.37580 25933 ft 170 kts 51°
2026-05-05 23:10 34.04073 -14.36430 25966 ft 190 kts 50°
2026-05-05 23:10 34.04795 -14.34845 25724 ft 237 kts 69°
2026-05-05 23:10 34.05442 -14.32967 25930 ft 249 kts 64°
2026-05-05 23:10 34.06272 -14.31078 26127 ft 261 kts 58°
2026-05-05 23:11 34.07228 -14.29141 26153 ft 273 kts 58°
2026-05-05 23:11 34.08190 -14.27134 26158 ft 280 kts 59°
2026-05-05 23:11 34.09150 -14.25062 26160 ft 285 kts 59°
2026-05-05 23:11 34.10127 -14.22955 26162 ft 290 kts 59°
2026-05-05 23:12 34.11125 -14.20828 26163 ft 293 kts 59°
2026-05-05 23:12 34.12132 -14.18682 26162 ft 295 kts 59°
2026-05-05 23:12 34.13142 -14.16519 26167 ft 297 kts 59°
2026-05-05 23:12 34.14158 -14.14342 26165 ft 298 kts 59°
2026-05-05 23:13 34.15178 -14.12158 26167 ft 299 kts 59°
2026-05-05 23:13 34.16201 -14.09965 26165 ft 300 kts 59°
2026-05-05 23:13 34.17226 -14.07769 26164 ft 300 kts 59°
2026-05-05 23:13 34.18249 -14.05574 26164 ft 301 kts 59°
2026-05-05 23:14 34.19276 -14.03369 26168 ft 301 kts 59°
2026-05-05 23:14 34.20302 -14.01165 26158 ft 301 kts 59°
2026-05-05 23:14 34.21325 -13.98966 26160 ft 301 kts 59°
2026-05-05 23:14 34.22348 -13.96765 26163 ft 301 kts 59°
2026-05-05 23:15 34.23378 -13.94549 26162 ft 301 kts 59°
2026-05-05 23:15 34.24402 -13.92343 26163 ft 301 kts 59°
2026-05-05 23:15 34.25423 -13.90142 26167 ft 300 kts 59°
2026-05-05 23:15 34.26444 -13.87941 26166 ft 300 kts 59°
2026-05-05 23:16 34.27464 -13.85740 26164 ft 300 kts 59°
2026-05-05 23:16 34.28476 -13.83556 26162 ft 300 kts 59°
2026-05-05 23:16 34.29507 -13.81328 26161 ft 300 kts 59°
2026-05-05 23:16 34.30526 -13.79126 26164 ft 300 kts 59°
2026-05-05 23:17 34.31543 -13.76926 26161 ft 300 kts 59°
2026-05-05 23:17 34.32560 -13.74725 26162 ft 300 kts 59°
2026-05-05 23:17 34.33575 -13.72526 26162 ft 300 kts 59°
2026-05-05 23:17 34.34590 -13.70327 26164 ft 300 kts 59°
2026-05-05 23:18 34.35606 -13.68122 26166 ft 299 kts 59°
2026-05-05 23:18 34.36620 -13.65922 26160 ft 299 kts 59°
2026-05-05 23:18 34.37634 -13.63720 26162 ft 299 kts 59°
2026-05-05 23:18 34.38648 -13.61517 26161 ft 299 kts 59°
2026-05-05 23:19 34.39661 -13.59316 26163 ft 299 kts 59°
2026-05-05 23:19 34.40674 -13.57111 26159 ft 299 kts 59°
2026-05-05 23:19 34.41680 -13.54922 26163 ft 299 kts 59°
2026-05-05 23:19 34.42691 -13.52719 26161 ft 299 kts 59°
2026-05-05 23:20 34.43699 -13.50522 26164 ft 298 kts 58°
2026-05-05 23:20 34.44707 -13.48324 26159 ft 298 kts 58°
2026-05-05 23:20 34.45715 -13.46124 26159 ft 298 kts 58°
2026-05-05 23:20 34.46724 -13.43921 26159 ft 298 kts 58°
2026-05-05 23:21 34.47730 -13.41723 26163 ft 298 kts 58°
2026-05-05 23:21 34.48725 -13.39549 26158 ft 298 kts 58°
2026-05-05 23:21 34.49729 -13.37351 26159 ft 298 kts 58°
2026-05-05 23:21 34.50734 -13.35151 26160 ft 298 kts 58°
2026-05-05 23:22 34.51740 -13.32947 26162 ft 298 kts 58°
2026-05-05 23:22 34.52743 -13.30750 26158 ft 298 kts 58°
2026-05-05 23:22 34.53748 -13.28544 26158 ft 298 kts 58°
2026-05-05 23:22 34.54752 -13.26342 26160 ft 298 kts 58°
2026-05-05 23:23 34.55755 -13.24138 26166 ft 298 kts 58°
2026-05-05 23:23 34.56757 -13.21937 26159 ft 298 kts 58°
2026-05-05 23:23 34.57761 -13.19729 26159 ft 298 kts 58°
2026-05-05 23:23 34.58761 -13.17529 26161 ft 298 kts 58°
2026-05-05 23:24 34.59763 -13.15322 26162 ft 298 kts 58°
2026-05-05 23:24 34.60764 -13.13117 26156 ft 298 kts 58°
2026-05-05 23:24 34.61767 -13.10906 26158 ft 298 kts 58°
2026-05-05 23:24 34.62768 -13.08698 26158 ft 298 kts 58°
2026-05-05 23:25 34.63769 -13.06488 26160 ft 298 kts 58°
2026-05-05 23:25 34.64770 -13.04278 26154 ft 299 kts 58°
2026-05-05 23:25 34.65773 -13.02060 26157 ft 299 kts 58°
2026-05-05 23:25 34.66764 -12.99869 26157 ft 299 kts 58°
2026-05-05 23:26 34.67765 -12.97653 26162 ft 299 kts 59°
2026-05-05 23:26 34.68767 -12.95435 26158 ft 299 kts 58°
2026-05-05 23:26 34.69766 -12.93221 26158 ft 299 kts 58°
2026-05-05 23:26 34.70767 -12.91001 26161 ft 299 kts 58°
2026-05-05 23:27 34.71767 -12.88782 26160 ft 299 kts 59°
2026-05-05 23:27 34.72767 -12.86562 26156 ft 299 kts 59°
2026-05-05 23:27 34.73764 -12.84346 26158 ft 299 kts 59°
2026-05-05 23:27 34.74764 -12.82124 26157 ft 299 kts 59°
2026-05-05 23:28 34.75763 -12.79901 26159 ft 299 kts 59°
2026-05-05 23:28 34.76763 -12.77677 26156 ft 299 kts 59°
2026-05-05 23:28 34.77747 -12.75485 26156 ft 299 kts 59°
2026-05-05 23:28 34.78743 -12.73264 26156 ft 299 kts 59°
2026-05-05 23:29 34.79738 -12.71045 26159 ft 299 kts 59°
2026-05-05 23:29 34.80735 -12.68821 26154 ft 299 kts 59°
2026-05-05 23:29 34.81732 -12.66593 26153 ft 299 kts 59°
2026-05-05 23:29 34.82728 -12.64368 26155 ft 299 kts 59°
2026-05-05 23:30 34.83722 -12.62147 26159 ft 299 kts 59°
2026-05-05 23:30 34.84718 -12.59917 26154 ft 299 kts 59°
2026-05-05 23:30 34.85714 -12.57688 26148 ft 300 kts 59°
2026-05-05 23:30 34.86707 -12.55462 26149 ft 299 kts 59°
2026-05-05 23:31 34.87701 -12.53234 26154 ft 299 kts 59°
2026-05-05 23:31 34.88695 -12.51004 26156 ft 299 kts 59°
2026-05-05 23:31 34.89690 -12.48772 26156 ft 299 kts 59°
2026-05-05 23:31 34.90681 -12.46545 26155 ft 299 kts 59°
2026-05-05 23:32 34.91673 -12.44316 26157 ft 299 kts 59°
2026-05-05 23:32 34.92667 -12.42079 26153 ft 299 kts 59°
2026-05-05 23:32 34.93657 -12.39851 26153 ft 299 kts 59°
2026-05-05 23:32 34.94650 -12.37617 26152 ft 299 kts 59°
2026-05-05 23:33 34.95638 -12.35389 26157 ft 299 kts 59°
2026-05-05 23:33 34.96631 -12.33151 26147 ft 299 kts 59°
2026-05-05 23:33 34.97609 -12.30944 26150 ft 299 kts 59°
2026-05-05 23:33 34.98597 -12.28711 26149 ft 299 kts 59°
2026-05-05 23:34 34.99585 -12.26479 26157 ft 299 kts 59°
2026-05-05 23:34 35.00574 -12.24244 26148 ft 299 kts 59°
2026-05-05 23:34 35.01562 -12.22008 26148 ft 299 kts 59°
2026-05-05 23:34 35.02549 -12.19773 26150 ft 299 kts 59°
2026-05-05 23:35 35.03539 -12.17530 26152 ft 299 kts 59°
2026-05-05 23:35 35.04526 -12.15294 26148 ft 299 kts 59°
2026-05-05 23:35 35.05512 -12.13057 26147 ft 299 kts 59°
2026-05-05 23:35 35.06496 -12.10823 26146 ft 299 kts 59°
2026-05-05 23:36 35.07482 -12.08583 26150 ft 299 kts 59°
2026-05-05 23:36 35.08466 -12.06346 26146 ft 299 kts 59°
2026-05-05 23:36 35.09449 -12.04111 26145 ft 299 kts 59°
2026-05-05 23:36 35.10432 -12.01873 26148 ft 299 kts 59°
2026-05-05 23:37 35.11416 -11.99634 26147 ft 299 kts 59°
2026-05-05 23:37 35.12398 -11.97394 26142 ft 299 kts 59°
2026-05-05 23:37 35.13381 -11.95152 26144 ft 299 kts 59°
2026-05-05 23:37 35.14364 -11.92910 26144 ft 299 kts 59°
2026-05-05 23:38 35.15344 -11.90673 26145 ft 299 kts 59°
2026-05-05 23:38 35.16324 -11.88433 26141 ft 299 kts 59°
2026-05-05 23:38 35.17292 -11.86220 26145 ft 299 kts 59°
2026-05-05 23:38 35.18274 -11.83972 26143 ft 299 kts 59°
2026-05-05 23:39 35.19253 -11.81732 26144 ft 299 kts 59°
2026-05-05 23:39 35.20231 -11.79493 26142 ft 299 kts 59°
2026-05-05 23:39 35.21212 -11.77243 26138 ft 299 kts 59°
2026-05-05 23:39 35.22190 -11.74999 26144 ft 299 kts 59°
2026-05-05 23:40 35.23169 -11.72752 26137 ft 299 kts 60°
2026-05-05 23:40 35.24147 -11.70506 26139 ft 299 kts 60°
2026-05-05 23:40 35.25125 -11.68258 26136 ft 299 kts 59°
2026-05-05 23:40 35.25771 -11.66772 26137 ft 299 kts 59°
2026-05-05 23:41 35.26747 -11.64526 26139 ft 299 kts 59°
2026-05-05 23:41 35.28044 -11.61539 26140 ft 299 kts 60°
2026-05-05 23:41 35.28703 -11.60021 26141 ft 299 kts 59°
2026-05-05 23:41 35.29679 -11.57770 26142 ft 298 kts 59°
2026-05-05 23:42 35.30648 -11.55533 26138 ft 297 kts 60°
2026-05-05 23:42 35.31614 -11.53303 26134 ft 295 kts 59°
2026-05-05 23:42 35.32560 -11.51119 26132 ft 294 kts 59°
2026-05-05 23:42 35.33520 -11.48903 26135 ft 295 kts 60°
2026-05-05 23:43 35.34483 -11.46673 26137 ft 296 kts 60°
2026-05-05 23:43 35.35446 -11.44443 26130 ft 297 kts 60°
2026-05-05 23:43 35.36412 -11.42204 26130 ft 297 kts 60°
2026-05-05 23:43 35.37378 -11.39966 26139 ft 297 kts 60°
2026-05-05 23:44 35.38346 -11.37722 26131 ft 298 kts 60°
2026-05-05 23:44 35.39312 -11.35479 26137 ft 298 kts 60°
2026-05-05 23:44 35.40277 -11.33237 26136 ft 298 kts 60°
2026-05-05 23:44 35.41243 -11.30993 26148 ft 298 kts 60°
2026-05-05 23:45 35.42217 -11.28728 26130 ft 300 kts 60°
2026-05-05 23:45 35.43188 -11.26467 26133 ft 300 kts 60°
2026-05-05 23:45 35.44158 -11.24206 26130 ft 299 kts 60°
2026-05-05 23:45 35.45129 -11.21945 26131 ft 299 kts 60°
2026-05-05 23:46 35.46097 -11.19687 26132 ft 299 kts 60°
2026-05-05 23:46 35.47063 -11.17434 26128 ft 299 kts 60°
2026-05-05 23:46 35.48018 -11.15204 26127 ft 299 kts 60°
2026-05-05 23:46 35.48983 -11.12948 26128 ft 299 kts 60°
2026-05-05 23:47 35.49949 -11.10689 26128 ft 298 kts 60°
2026-05-05 23:47 35.50915 -11.08429 26127 ft 299 kts 60°
2026-05-05 23:47 35.51879 -11.06173 26130 ft 299 kts 60°
2026-05-05 23:47 35.52844 -11.03911 26127 ft 299 kts 60°
2026-05-05 23:48 35.53804 -11.01660 26126 ft 299 kts 60°
2026-05-05 23:48 35.54770 -10.99393 26128 ft 299 kts 60°
2026-05-05 23:48 35.55731 -10.97137 26127 ft 299 kts 60°
2026-05-05 23:48 35.56694 -10.94875 26127 ft 299 kts 60°
2026-05-05 23:49 35.57656 -10.92613 26125 ft 299 kts 60°
2026-05-05 23:49 35.58617 -10.90353 26125 ft 299 kts 60°
2026-05-05 23:49 35.59578 -10.88090 26126 ft 299 kts 60°
2026-05-05 23:49 35.60540 -10.85824 26128 ft 299 kts 60°
2026-05-05 23:50 35.61498 -10.83564 26126 ft 299 kts 60°
2026-05-05 23:50 35.62461 -10.81294 26122 ft 299 kts 60°
2026-05-05 23:50 35.63420 -10.79030 26122 ft 299 kts 60°
2026-05-05 23:50 35.64381 -10.76760 26122 ft 299 kts 60°
2026-05-05 23:51 35.65340 -10.74491 26123 ft 299 kts 60°
2026-05-05 23:51 35.66298 -10.72226 26122 ft 299 kts 60°
2026-05-05 23:51 35.67257 -10.69955 26123 ft 299 kts 60°
2026-05-05 23:51 35.68217 -10.67683 26122 ft 299 kts 60°
2026-05-05 23:52 35.69174 -10.65413 26121 ft 299 kts 60°
2026-05-05 23:52 35.70121 -10.63169 26116 ft 299 kts 60°
2026-05-05 23:52 35.71079 -10.60893 26118 ft 299 kts 60°
2026-05-05 23:52 35.72035 -10.58622 26119 ft 299 kts 60°
2026-05-05 23:53 35.72993 -10.56345 26119 ft 299 kts 60°
2026-05-05 23:53 35.73949 -10.54073 26116 ft 299 kts 60°
2026-05-05 23:53 35.74904 -10.51800 26116 ft 299 kts 60°
2026-05-05 23:53 35.75860 -10.49522 26114 ft 299 kts 60°
2026-05-05 23:54 35.76818 -10.47240 26115 ft 299 kts 60°
2026-05-05 23:54 35.77760 -10.44992 26113 ft 299 kts 60°
2026-05-05 23:54 35.78718 -10.42707 26113 ft 299 kts 60°
2026-05-05 23:54 35.79672 -10.40427 26114 ft 299 kts 60°
2026-05-05 23:55 35.80626 -10.38146 26115 ft 299 kts 60°
2026-05-05 23:55 35.81582 -10.35861 26111 ft 300 kts 60°
2026-05-05 23:55 35.82539 -10.33572 26112 ft 300 kts 60°
2026-05-05 23:55 35.83492 -10.31287 26110 ft 300 kts 60°
2026-05-05 23:56 35.84444 -10.29006 26113 ft 300 kts 60°
2026-05-05 23:56 35.85397 -10.26722 26112 ft 300 kts 60°
2026-05-05 23:56 35.86349 -10.24436 26110 ft 300 kts 60°
2026-05-05 23:56 35.87300 -10.22151 26110 ft 299 kts 60°
2026-05-05 23:57 35.88251 -10.19866 26105 ft 300 kts 60°
2026-05-05 23:57 35.89204 -10.17576 26109 ft 300 kts 60°
2026-05-05 23:57 35.90153 -10.15290 26108 ft 300 kts 60°
2026-05-05 23:57 35.91103 -10.13002 26110 ft 300 kts 60°
2026-05-05 23:58 35.92054 -10.10711 26108 ft 300 kts 60°
2026-05-05 23:58 35.93003 -10.08422 26108 ft 300 kts 61°
2026-05-05 23:58 35.93955 -10.06125 26105 ft 300 kts 61°
2026-05-05 23:58 35.94903 -10.03835 26107 ft 300 kts 61°
2026-05-05 23:59 35.95853 -10.01539 26107 ft 300 kts 61°
2026-05-05 23:59 35.96801 -9.99246 26107 ft 300 kts 61°
2026-05-05 23:59 35.97748 -9.96955 26105 ft 300 kts 61°
2026-05-05 23:59 35.98683 -9.94690 26107 ft 300 kts 61°
2026-05-06 00:00 35.99630 -9.92396 26108 ft 300 kts 61°
2026-05-06 00:00 36.00577 -9.90100 26103 ft 300 kts 61°
2026-05-06 00:00 36.01525 -9.87799 26102 ft 300 kts 61°
2026-05-06 00:00 36.02470 -9.85505 26100 ft 300 kts 61°
2026-05-06 00:01 36.03413 -9.83212 26101 ft 300 kts 61°
2026-05-06 00:01 36.04359 -9.80912 26100 ft 300 kts 61°
2026-05-06 00:01 36.05305 -9.78609 26101 ft 300 kts 61°
2026-05-06 00:01 36.06251 -9.76303 26100 ft 300 kts 61°
2026-05-06 00:02 36.07196 -9.74001 26096 ft 300 kts 61°
2026-05-06 00:02 36.08141 -9.71697 26097 ft 300 kts 61°
2026-05-06 00:02 36.09085 -9.69393 26096 ft 300 kts 61°
2026-05-06 00:02 36.10016 -9.67118 26094 ft 300 kts 61°
2026-05-06 00:03 36.10961 -9.64809 26094 ft 300 kts 61°
2026-05-06 00:03 36.11905 -9.62500 26093 ft 301 kts 61°
2026-05-06 00:03 36.12849 -9.60189 26090 ft 301 kts 61°
2026-05-06 00:03 36.13791 -9.57883 26091 ft 301 kts 61°
2026-05-06 00:04 36.14736 -9.55567 26092 ft 301 kts 61°
2026-05-06 00:04 36.15679 -9.53253 26089 ft 301 kts 61°
2026-05-06 00:04 36.16624 -9.50934 26091 ft 301 kts 61°
2026-05-06 00:04 36.17566 -9.48621 26088 ft 301 kts 61°
2026-05-06 00:05 36.19437 -9.44019 26090 ft 301 kts 61°
2026-05-06 00:05 36.20385 -9.41686 26085 ft 300 kts 61°
2026-05-06 00:05 36.21315 -9.39395 26090 ft 300 kts 61°
2026-05-06 00:06 36.22253 -9.37083 26093 ft 300 kts 61°
2026-05-06 00:06 36.23191 -9.34769 26085 ft 300 kts 61°
2026-05-06 00:06 36.24128 -9.32456 26084 ft 300 kts 61°
2026-05-06 00:06 36.25064 -9.30145 26084 ft 300 kts 61°
2026-05-06 00:07 36.26000 -9.27830 26089 ft 301 kts 61°
2026-05-06 00:07 36.26937 -9.25513 26090 ft 301 kts 61°
2026-05-06 00:07 36.27873 -9.23196 26090 ft 301 kts 61°
2026-05-06 00:07 36.28809 -9.20877 26084 ft 301 kts 61°
2026-05-06 00:08 36.29744 -9.18559 26082 ft 300 kts 61°
2026-05-06 00:08 36.30692 -9.16205 25736 ft 308 kts 62°
2026-05-06 00:08 36.31654 -9.13815 25372 ft 310 kts 62°
2026-05-06 00:08 36.32616 -9.11421 25018 ft 309 kts 62°
2026-05-06 00:09 36.33573 -9.09039 24659 ft 308 kts 62°
2026-05-06 00:09 36.34515 -9.06697 24315 ft 307 kts 62°
2026-05-06 00:09 36.35466 -9.04331 23971 ft 305 kts 62°
2026-05-06 00:09 36.36413 -9.01971 23626 ft 306 kts 62°
2026-05-06 00:10 36.37360 -8.99610 23216 ft 306 kts 62°
2026-05-06 00:10 36.38305 -8.97249 22813 ft 305 kts 62°
2026-05-06 00:10 36.39255 -8.94893 22412 ft 304 kts 62°
2026-05-06 00:10 36.40193 -8.92553 22020 ft 303 kts 62°
2026-05-06 00:11 36.41119 -8.90213 21631 ft 301 kts 62°
2026-05-06 00:11 36.42049 -8.87880 21245 ft 299 kts 62°
2026-05-06 00:11 36.42974 -8.85570 20866 ft 298 kts 62°
2026-05-06 00:11 36.43893 -8.83271 20488 ft 297 kts 62°
2026-05-06 00:12 36.44809 -8.80971 20121 ft 297 kts 62°
2026-05-06 00:12 36.45723 -8.78678 19757 ft 295 kts 62°
2026-05-06 00:12 36.46633 -8.76395 19388 ft 294 kts 62°
2026-05-06 00:12 36.47539 -8.74119 19038 ft 293 kts 62°
2026-05-06 00:13 36.48441 -8.71849 18685 ft 292 kts 62°
2026-05-06 00:13 36.49342 -8.69580 18338 ft 294 kts 62°
2026-05-06 00:13 36.50238 -8.67325 17938 ft 295 kts 62°
2026-05-06 00:13 36.51146 -8.65034 17538 ft 295 kts 62°
2026-05-06 00:14 36.52052 -8.62748 17150 ft 295 kts 62°
2026-05-06 00:14 36.52956 -8.60466 16761 ft 294 kts 62°
2026-05-06 00:14 36.53859 -8.58185 16380 ft 293 kts 62°
2026-05-06 00:14 36.54764 -8.55896 16000 ft 293 kts 62°
2026-05-06 00:15 36.55653 -8.53649 15629 ft 293 kts 62°
2026-05-06 00:15 36.56551 -8.51374 15261 ft 292 kts 62°
2026-05-06 00:15 36.57450 -8.49098 14894 ft 292 kts 62°
2026-05-06 00:15 36.58342 -8.46837 14536 ft 291 kts 62°
2026-05-06 00:16 36.59233 -8.44577 14174 ft 290 kts 63°
2026-05-06 00:16 36.60117 -8.42331 13822 ft 288 kts 62°
2026-05-06 00:16 36.60995 -8.40100 13427 ft 287 kts 63°
2026-05-06 00:16 36.61873 -8.37867 13032 ft 286 kts 63°
2026-05-06 00:17 36.62733 -8.35680 12650 ft 284 kts 63°
2026-05-06 00:17 36.63601 -8.33472 12266 ft 284 kts 63°
2026-05-06 00:17 36.64465 -8.31269 11889 ft 283 kts 62°
2026-05-06 00:17 36.65326 -8.29072 11515 ft 282 kts 63°
2026-05-06 00:18 36.66186 -8.26879 11145 ft 281 kts 63°
2026-05-06 00:18 36.67042 -8.24693 10782 ft 280 kts 62°
2026-05-06 00:18 36.67897 -8.22510 10422 ft 279 kts 63°
2026-05-06 00:18 36.68742 -8.20348 10064 ft 276 kts 63°
2026-05-06 00:19 36.69578 -8.18210 9679 ft 273 kts 63°
2026-05-06 00:19 36.70406 -8.16093 9389 ft 270 kts 63°
2026-05-06 00:19 36.71179 -8.14113 9191 ft 267 kts 63°
2026-05-06 00:19 36.71988 -8.12038 8982 ft 265 kts 63°
2026-05-06 00:20 36.72791 -8.09978 8778 ft 263 kts 63°
2026-05-06 00:20 36.73590 -8.07926 8568 ft 262 kts 63°
2026-05-06 00:20 36.74385 -8.05885 8362 ft 261 kts 63°
2026-05-06 00:20 36.75175 -8.03856 8160 ft 260 kts 63°
2026-05-06 00:21 36.75958 -8.01840 7962 ft 257 kts 63°
2026-05-06 00:21 36.76679 -7.99851 7758 ft 253 kts 68°
2026-05-06 00:21 36.77331 -7.97816 7552 ft 252 kts 67°
2026-05-06 00:21 36.77984 -7.95801 7361 ft 251 kts 68°
2026-05-06 00:22 36.78613 -7.93776 7167 ft 249 kts 67°
2026-05-06 00:22 36.79286 -7.91770 7004 ft 247 kts 66°
2026-05-06 00:22 36.79938 -7.89821 7001 ft 240 kts 67°
2026-05-06 00:22 36.80553 -7.87908 6999 ft 236 kts 67°
2026-05-06 00:23 36.81156 -7.86022 6996 ft 233 kts 67°
2026-05-06 00:23 36.81751 -7.84175 6992 ft 231 kts 67°
2026-05-06 00:23 36.82360 -7.82291 6798 ft 238 kts 67°
2026-05-06 00:23 36.82991 -7.80330 6558 ft 243 kts 67°
2026-05-06 00:24 36.83611 -7.78403 6318 ft 243 kts 68°
2026-05-06 00:24 36.84242 -7.76441 6058 ft 242 kts 68°
2026-05-06 00:24 36.84870 -7.74488 5799 ft 242 kts 68°
2026-05-06 00:24 36.85495 -7.72543 5548 ft 241 kts 68°
2026-05-06 00:25 36.86172 -7.70642 5294 ft 238 kts 58°
2026-05-06 00:25 36.87326 -7.69187 5048 ft 237 kts 33°
2026-05-06 00:25 36.88853 -7.68462 4798 ft 236 kts
2026-05-06 00:25 36.90478 -7.68262 4545 ft 233 kts
2026-05-06 00:26 36.92088 -7.68103 4289 ft 231 kts
2026-05-06 00:26 36.93143 -7.67992 4121 ft 229 kts
2026-05-06 00:26 36.94715 -7.67881 3998 ft 221 kts 356°
2026-05-06 00:26 36.96175 -7.68237 3988 ft 207 kts 354°
2026-05-06 00:27 36.97536 -7.68616 3990 ft 199 kts 330°
2026-05-06 00:27 36.98379 -7.69924 4003 ft 197 kts 287°
2026-05-06 00:27 36.98282 -7.72212 3727 ft 206 kts 263°
2026-05-06 00:27 36.98255 -7.73954 3293 ft 196 kts 278°
2026-05-06 00:28 36.98384 -7.75075 3017 ft 188 kts 282°
2026-05-06 00:28 36.98601 -7.76582 2992 ft 170 kts 284°
2026-05-06 00:28 36.98815 -7.78084 2864 ft 187 kts 284°
2026-05-06 00:28 36.99056 -7.79774 2603 ft 205 kts 284°
2026-05-06 00:29 36.99311 -7.81570 2325 ft 212 kts 285°
2026-05-06 00:29 36.99571 -7.83411 2025 ft 208 kts 284°
2026-05-06 00:29 36.99792 -7.85008 1777 ft 163 kts 287°
2026-05-06 00:29 36.99969 -7.86235 1580 ft 128 kts 289°
2026-05-06 00:30 37.00113 -7.87241 1421 ft 115 kts 288°
2026-05-06 00:30 37.00253 -7.88217 1267 ft 112 kts 289°
2026-05-06 00:30 37.00373 -7.89176 1118 ft 111 kts 288°
2026-05-06 00:30 37.00534 -7.90104 987 ft 108 kts 290°
2026-05-06 00:31 37.00643 -7.91016 841 ft 107 kts 283°
2026-05-06 00:31 37.00763 -7.91938 693 ft 108 kts 288°
2026-05-06 00:31 37.00898 -7.92860 550 ft 107 kts 287°
2026-05-06 00:31 37.01031 -7.93784 393 ft 110 kts 287°
2026-05-06 00:32 37.01160 -7.94703 252 ft 104 kts 286°
2026-05-06 00:32 37.01297 -7.95580 102 ft 101 kts 286°
2026-05-06 00:32 37.01413 -7.96376 24 ft 80 kts 283°
2026-05-06 00:32 37.01496 -7.96945 19 ft 56 kts 282°
2026-05-06 00:33 37.01548 -7.97331 15 ft 36 kts 278°
2026-05-06 00:33 37.01589 -7.97622 15 ft 32 kts 279°
2026-05-06 00:33 37.01621 -7.97827 16 ft 17 kts 300°
2026-05-06 00:33 37.01704 -7.97836 17 ft 14 kts 38°
2026-05-06 00:34 37.01730 -7.97793 16 ft 2 kts 65°
2026-05-06 00:34 37.01750 -7.97743 16 ft 8 kts 63°
2026-05-06 00:34 37.01768 -7.97664 16 ft 10 kts 82°
2026-05-06 00:34 37.01766 -7.97565 15 ft 13 kts 99°
2026-05-06 00:35 37.01764 -7.97454 16 ft 13 kts 56°
2026-05-06 00:35 37.01825 -7.97386 16 ft 10 kts 40°
2026-05-06 00:35 37.01831 -7.97342 16 ft 5 kts 163°
2026-05-06 00:35 37.01794 -7.97325 16 ft 2 kts 158°
2026-05-06 00:36 37.01787 -7.97322 16 ft 1 kts 160°
2026-05-06 00:36 37.01784 -7.97321 16 ft 0 kts 160°